Simultaneous Nadir Overpasses (SNOs) Predictions

Prediction of SNOs between AQUA and METOP-B Satellite Orbit:

Table of predicted SNOs for the next 14.0 days since TLE Epoch: 2/18/2023
Index Date (AQUA) Time (AQUA) Lat,Lon (AQUA) SZA (AQUA ) Date (METOP-B) Time (METOP-B) Lat,Lon (METOP-B) SZA (METOP-B ) Distance(km) Time Diff (sec)
1 02/20/2023 10:30:37 -74.21,-162.16 94.81 02/20/2023 10:29:31 -74.23,-162.21 94.77 2.92 66
2 02/20/2023 11:20:05 74.29, 5.30 85.27 02/20/2023 11:20:09 74.31, 5.33 85.29 2.48 4
3 02/20/2023 12:09:35 -74.58, 172.22 94.42 02/20/2023 12:10:45 -74.60, 173.41 94.46 35.20 70
4 02/23/2023 05:13:46 74.27, 96.94 84.25 02/23/2023 05:13:10 74.27, 96.97 84.26 1.00 36
5 02/23/2023 06:03:11 -74.31, -95.51 95.72 02/23/2023 06:03:51 -74.32, -95.57 95.71 2.41 40
6 02/25/2023 23:07:25 74.18,-171.26 83.14 02/25/2023 23:06:13 74.17,-171.54 83.15 8.76 72
7 02/25/2023 23:56:52 -74.32, -3.94 96.72 02/25/2023 23:56:52 -74.32, -3.83 96.73 3.31 0
8 02/26/2023 00:46:19 74.36, 163.61 83.31 02/26/2023 00:47:31 74.34, 163.57 83.28 2.40 72
9 02/28/2023 17:50:30 -74.27, 87.79 97.81 02/28/2023 17:49:54 -74.26, 87.75 97.82 2.38 36
10 02/28/2023 18:39:57 74.32,-104.67 82.23 02/28/2023 18:40:32 74.33,-104.73 82.23 2.06 35
11 03/03/2023 11:44:06 -74.26, 179.44 98.88 03/03/2023 11:42:53 -74.27, 179.55 98.86 3.48 73
12 03/03/2023 12:33:33 74.31, -13.03 81.17 03/03/2023 12:33:32 74.29, -13.07 81.15 2.07 1



Historial Predications of SNOs between AQUA and METOP-B
